THOR ABLESTAR DEB, 38521

Orbit data source: Space-Track

THOR ABLESTAR DEB, 38521 is space debris in LEO originally from a launch on Sat, 28 Sep 1963 UTC launched from the Air Force Western Test Range (AFWTR). Debris objects in space refer to the collection of defunct objects orbiting the Earth. Examples of debris include non-operational satellites, rocket bodies, and fragments generated from explosions, collisions, or faulty payload assembly.

Loading next visibility...
Identifier
38521, 1963-038Q
Orbit
LEO
Country
Flag of USUS
Related business
Manufacturer
Unknown
Mission
Spacecraft
Bus & Motor
Unknown
Mass
Unknown
Launch date (UTC)
1963-09-28 (62 years ago)
Launch vehicle
Unknown
Launch site
Air Force Western Test Range (AFWTR)
Object type
Payload
Rocket body
Debris
Shape & HBR
Unknown shape, 0.1 m
Radar Cross Section
Small (<0.1 m²)

Expand to show TLE details & history
Last TLE update: 2 days ago

TLE from 2 days ago
0 THOR ABLESTAR DEB
1 38521U 63038Q   25339.77400779  .00000129  00000-0  20039-3 0  9991
2 38521  89.9693 333.6780 0040814 177.6270   1.7068 13.45393576609498
Epoch: 2025-12-05T18:34Z
TLE epoch observation values (Epoch: 2025-12-05T18:34:34.273Z)
Latitude
0.54037°
Longitude
160.22363°
Altitude
1,061.663 km
Speed
7.336 km/s
True Right ascension
10h 14m 42s
True Declination
0° 32' 14"
Sunlit
Object was in daylight at epoch
Visualization orbit readout
Latitude
Unknown
Longitude
Unknown
Altitude
Unknown
Speed
Unknown
Apparent Right ascension
Unknown
Apparent Declination
Unknown
Sunlit
N/A
Visualization observer readout
Local Sidereal Time
08:38:04
Azimuth
Unknown
Elevation
Unknown
Doppler factor
Unknown
Orbital elements
Apogee altitude
1,116.777 km
Perigee altitude
1,055.846 km
Semi-major axis
7,464.448 km
Eccentricity
0.00408
Inclination
89.9693°
RAAN
333.678°
Arg. of periapsis
177.627°
True anomaly
1.7208°
Mean anomaly
1.7068°
Eccentric anomaly
1.71379°
Mean motion
3.36548 °/min
Orbital period
106.97 mins
BSTAR
0.00020039
Loading maneuver chart data...
Computing Atmospheric mass density...

Documentation

Showing up to 5 results
|